Weather History for KRMG - March, 2013

Change the Weather History Date:

Sunday, March 3, 2013

  Actual Average Record
Temperature  
Mean Temperature 35 °F 48 °F  
Max Temperature 43 °F 60 °F 75 °F (2004)
Min Temperature 26 °F 36 °F 21 °F (2009)
Degree Days  
Heating Degree Days 30 17  
Month to date heating degree days 51  
Since 1 July heating degree days 2673  
Cooling Degree Days 0 0  
Month to date cooling degree days 0  
Year to date cooling degree days 0  
Moisture  
Dew Point 20 °F    
Average Humidity 56    
Maximum Humidity 78    
Minimum Humidity 27    
Precipitation  
Precipitation 0.00 in 0.17 in 0.91 in (2001)
Month to date precipitation 0.51  
Year to date precipitation 10.20  
Sea Level Pressure  
Sea Level Pressure 30.08 in    
Wind  
Wind Speed 8 mph (NNW)    
Max Wind Speed 17 mph    
Max Gust Speed 23 mph    
Visibility 10 miles    
Events Snow    
T = Trace of Precipitation, MM = Missing Value Source: NWS Daily Summary

Daily Weather History Graph

Daily Weather History Graph

Search for Another Location

Airport or City:

Trip Planner

Search our weather history database for the weather conditions in past years. The results will help you decide how hot, cold, wet, or windy it might be!

Date:

Astronomy

Mar. 03, 2013 Rise Set
Actual Time 7:06 AM EST 6:38 PM EST
Civil Twilight 6:41 AM EST 7:03 PM EST
Nautical Twilight 6:12 AM EST 7:33 PM EST
Astronomical Twilight 5:43 AM EST 8:02 PM EST
Moon 12:00 AM EST (3/3) 10:38 AM EST (3/3)
Length of Visible Light 12h 22m
Length of Day
11h 32m
Waning Gibbous, 64% of the Moon is Illuminated
Mar 3
Waning Gibbous
Mar 4
Last Quarter
Mar 11
New
Mar 19
First Quarter
Mar 27
Full

Hourly Weather History & Observations

Time (EST) Temp. Windchill Dew Point Humidity Pressure Visibility Wind Dir Wind Speed Gust Speed Precip Events Conditions
12:20 AM 33.8 °F 27.7 °F 26.6 °F 75% 30.07 in 9.0 mi NNW 6.9 mph - 0.00 in Snow Light Snow
12:36 AM 33.8 °F 27.7 °F 26.6 °F 75% 30.07 in 10.0 mi North 6.9 mph - 0.00 in   Overcast
12:53 AM 33.1 °F 27.7 °F 27.0 °F 78% 30.07 in 10.0 mi North 5.8 mph - 0.00 in   Overcast
1:53 AM 33.1 °F 26.1 °F 26.1 °F 75% 30.08 in 10.0 mi North 8.1 mph - N/A   Overcast
2:53 AM 33.1 °F 26.1 °F 21.9 °F 64% 30.07 in 10.0 mi NNW 8.1 mph - N/A   Overcast
3:53 AM 32.0 °F 24.2 °F 19.9 °F 61% 30.06 in 10.0 mi NNW 9.2 mph - N/A   Overcast
4:53 AM 32.0 °F 24.8 °F 21.0 °F 64% 30.06 in 10.0 mi NNW 8.1 mph - N/A   Overcast
5:53 AM 32.0 °F 25.6 °F 19.9 °F 61% 30.06 in 10.0 mi NNW 6.9 mph - N/A   Overcast
6:53 AM 32.0 °F 24.2 °F 19.9 °F 61% 30.07 in 10.0 mi NNW 9.2 mph - N/A   Overcast
7:53 AM 30.9 °F 24.3 °F 17.1 °F 57% 30.09 in 10.0 mi NNW 6.9 mph - N/A   Overcast
8:53 AM 32.0 °F 23.6 °F 19.0 °F 59% 30.10 in 10.0 mi North 10.4 mph 20.7 mph N/A   Overcast
9:53 AM 33.1 °F 23.9 °F 19.0 °F 56% 30.11 in 10.0 mi NW 12.7 mph 19.6 mph N/A   Overcast
10:53 AM 33.1 °F 22.2 °F 19.0 °F 56% 30.12 in 10.0 mi NNW 17.3 mph 23.0 mph N/A   Overcast
11:53 AM 36.0 °F 26.3 °F 18.0 °F 48% 30.11 in 10.0 mi NNW 16.1 mph 20.7 mph N/A   Overcast
12:53 PM 37.0 °F 31.0 °F 17.1 °F 44% 30.09 in 10.0 mi North 8.1 mph 18.4 mph N/A   Overcast
1:53 PM 39.0 °F 32.3 °F 19.0 °F 45% 30.08 in 10.0 mi North 10.4 mph 17.3 mph N/A   Overcast
2:53 PM 39.9 °F 32.9 °F 18.0 °F 41% 30.08 in 10.0 mi WNW 11.5 mph 19.6 mph N/A   Partly Cloudy
3:53 PM 41.0 °F 35.8 °F 17.1 °F 38% 30.06 in 10.0 mi WNW 8.1 mph 19.6 mph N/A   Partly Cloudy
4:53 PM 43.0 °F 36.4 °F 16.0 °F 34% 30.06 in 10.0 mi NNW 12.7 mph - N/A   Clear
5:53 PM 42.1 °F 36.6 °F 16.0 °F 35% 30.07 in 10.0 mi NNW 9.2 mph - N/A   Clear
6:53 PM 37.9 °F 34.4 °F 16.0 °F 41% 30.08 in 10.0 mi NNW 4.6 mph - N/A   Clear
7:53 PM 34.0 °F - 17.1 °F 50% 30.09 in 10.0 mi Calm Calm - N/A   Clear
8:53 PM 28.9 °F - 19.9 °F 69% 30.11 in 10.0 mi Calm Calm - N/A   Clear
9:53 PM 28.0 °F - 19.9 °F 72% 30.11 in 10.0 mi Calm Calm - N/A   Clear
10:53 PM 27.0 °F - 19.9 °F 75% 30.11 in 10.0 mi Calm Calm - N/A   Clear
11:53 PM 26.1 °F - 19.9 °F 78% 30.11 in 10.0 mi Calm Calm - N/A   Clear